User: anonymous   Login
Location: Unspecified
(0.0000°N, 0.0000°E)
Time: 10:27:08
(UTC+01:00)
Language:

ATLAS 2AS CENTAUR R/B - Orbit

View from above orbital plane
View from above orbital plane
View from above satellite
View from above satellite

Ground track
Ground track

The orbit data is extracted from the following two-line orbital elements,

1 28096U 03054B   17049.87623168 0.00000000  00000-0  00000-0 0    02
2 28096  63.6705 356.8391 0265715 266.4248  93.5752 13.40821755    04
Epoch (UTC): 18 February 2017 21:01:46
Eccentricity: 0.0265715
inclination: 63.6705°
perigee height: 907 km
apogee height: 1305 km
right ascension of ascending node: 356.8391°
argument of perigee: 266.4248°
revolutions per day: 13.40821755
mean anomaly at epoch: 93.5752°
orbit number at epoch: 0

The dashed part of the orbit path shows where the satellite is in the earth's shadow,  

DLR